SCP
0 0 0 0 0 0 0 0 0 0 0 0 0 0 0 0 0 0 0 0 0 0 0 0 0 0 0 0 0 0 0 0 0 0 0 0 0 0
0 0 0 0 0 0 0 0 0 0 0 0 0 0 0 0 0 0 0 0 0 0 0 0 0 0 0 0 0 0 0 0 0 0 0 0 0 0
0 0 0 0 0 0 0 0 0 0 0 0 0 0 0 0 0 0 0 0 0 0 0 0 0 0 0 0 0 0 0 0 0 0 0 0 0 0
0 0 0 0 0 0 0 0 0 0 0 0 0 0 0 0 0 0 0 0 0 0 0 0 0 0 0 0 0 0 0 0 0 0 0 0 0 0
0 0 0 0 0 0 0 0 0 0 0 0 0 0 0 0 0 0 0 0 0 0 0 0 0 0 0 0 0 0 0 0 0 0 0 0 0 0
0 0 0 0 0 0 0 0 0 0 0 0 0 0 0 0 0 0 0 0 0 0 0 0 0 0 0 0 0 0 0 0 0 0 0 0 0 0
0 0 0 0 0 0 0 0 0 0 0 0 0 0 0 0 0 0 0 0 0 0 0 0 0 0 0 0 0 0 0 0 0 0 0 0 0 0
0 0 0 0 0 0 0 0 0 0 0 0 0 0 0 0 0 0 0 0 0 0 0 0 0 0 0 0 0 0 0 0 0 0 0 0 0 0
0 0 0 0 0 0 0 0 0 0 0 0 0 0 0 0 0 0 0 0 0 0 0 0 0 0 0 0 0 0 0 0 0 0 0 0 0 0
0 0 0 0 0 0 0 0 0 0 0 0 0 0 0 0 0 0 0 0 0 0 0 0 0 0 0 0 0 0 0 0 0 0 0 0 0 0
0 0 0 0 0 0 0 0 0 0 0 0 0 0 0 0 0 0 0 0 0 0 0 0 0 0 0 0 0 0 0 0 0 0 0 0 0 0
0 0 0 0 0 0 0 0 0 0 0 0 0 0 0 0 0 0 0 0 0 0 0 0 0 0 0 0 0 0 0 0 0 0 0 0 0 0
0 0 0 0 0 0 0 0 0 0 0 0 0 0 0 0 0 0 0 0 0 0 0 0 0 0 0 0 0 0 0 0 0 0 0 0 0 0
0 0 0 0 0 0 0 0 0 0 0 0 0 0 0 0 0 0 0 0 0 0 0 0 0 0 0 0 0 0 0 0 0 0 0 0 0 0
0 0 0 0 0 0 0 0 0 0 0 0 0 0 0 0 0 0 0 0 0 0 0 0 0 0 0 0 0 0 0 0 0 0 0 0 0 0
0 0 0 0 0 0 0 0 0 0 0 0 0 0 0 0 0 0 0 0 0 0 0 0 0 0 0 0 0 0 0 0 0 0 0 0 0 0
0 0 0 0 0 0 0 0 0 0 0 0 0 0 0 0 0 0 0 0 0 0 0 0 0 0 0 0 0 0 0 0 0 0 0 0 0 0
0 0 0 0 0 0 0 0 0 0 0 0 0 0 0 0 0 0 0 0 0 0 0 0 0 0 0 0 0 0 0 0 0 0 0 0 0 0
0 0 0 0 0 0 0 0 0 0 0 0 0 0 0 0 0 0 0 0 0 0 0 0 0 0 0 0 0 0 0 0 0 0 0 0 0 0
0 0 0 0 0 0 0 0 0 0 0 0 0 0 0 0 0 0 0 0 0 0 0 0 0 0 0 0 0 0 0 0 0 0 0 0 0 0
0 0 0 0 0 0 0 0 0 0 0 0 0 0 0 0 0 0 0 0 0 0 0 0 0 0 0 0 0 0 0 0 0 0 0 0 0 0
0 0 0 0 0 0 0 0 0 0 0 0 0 0 0 0 0 0 0 0 0 0 0 0 0 0 0 0 0 0 0 0 0 0 0 0 0 0
0 0 0 0 0 0 0 0 0 0 0 0 0 0 0 0 0 0 0 0 0 0 0 0 0 0 0 0 0 0 0 0 0 0 0 0 0 0
Wind_Speed
2 2 2 3 3 3 3 4 5 7 6 5 4 4 4 3 4 4 5 9 12 12 14 15 18 20 22 22 23 23 23 23 23 23 23 23 22 22
2 2 3 3 3 4 4 5 5 6 7 5 5 5 6 8 10 7 7 14 15 16 16 16 17 19 21 22 23 23 24 23 23 23 23 23 22 22
4 5 5 5 4 4 4 5 5 6 8 7 6 7 7 7 7 7 8 8 8 15 15 15 15 17 19 22 23 23 24 24 24 23 23 23 22 22
5 5 5 5 6 5 4 5 5 6 7 9 7 7 8 8 8 8 9 10 7 13 16 17 17 18 18 19 20 21 21 21 23 23 23 23 22 22
5 5 5 5 5 4 5 5 5 6 6 7 9 7 7 8 8 9 9 7 10 12 14 14 15 16 17 18 19 20 20 20 20 22 23 23 22 22
6 5 6 6 5 5 5 6 6 6 7 7 8 8 7 8 7 6 7 6 8 10 12 13 14 15 16 17 18 20 19 19 20 20 20 20 21 21
7 6 7 8 9 5 6 5 6 7 8 8 9 9 9 7 7 6 8 7 8 7 6 8 8 7 8 11 14 17 17 18 18 19 19 18 18 18
8 7 8 7 6 6 8 10 10 10 10 9 9 10 11 9 7 7 8 8 7 4 6 8 8 7 7 6 10 12 13 15 16 17 17 17 17 17
7 6 8 8 6 5 8 12 11 13 13 10 10 11 10 9 9 9 8 9 10 8 7 8 7 7 7 8 11 11 11 12 13 14 14 15 15 15
6 7 7 5 5 6 9 10 10 10 10 9 7 9 9 8 8 8 9 9 9 7 5 6 6 6 8 6 9 9 10 11 11 12 12 12 13 13
8 8 7 5 5 8 9 11 11 10 11 13 13 12 14 14 10 6 6 7 8 7 4 4 4 6 7 6 4 7 9 10 10 11 11 11 12 11
7 7 5 5 8 10 9 10 11 11 11 13 12 11 9 7 8 5 5 6 6 5 2 3 3 4 5 4 4 5 5 7 9 10 10 10 9 6
8 7 5 7 12 13 11 9 11 12 11 10 9 7 6 4 4 4 4 4 6 5 3 3 3 3 4 5 5 5 4 4 4 5 7 9 9 8
8 7 8 14 15 16 12 11 14 12 7 7 6 5 4 4 4 5 5 4 5 6 6 5 4 4 5 5 5 4 5 4 3 3 2 5 7 8
7 11 14 16 15 10 10 12 10 6 5 6 5 5 4 4 5 4 5 5 5 5 5 6 5 5 5 4 5 4 4 4 3 2 1 2 3 3
8 11 14 12 9 8 8 7 5 4 4 5 5 4 4 3 4 4 4 5 5 5 5 6 5 4 3 5 5 5 5 4 3 2 1 1 1 1
9 7 6 6 7 7 7 6 5 5 4 4 4 4 4 4 4 4 4 4 4 6 7 7 6 3 1 4 5 6 5 3 3 2 2 3 3 3
8 6 6 7 7 7 8 7 6 5 4 3 4 3 4 4 4 4 4 4 5 6 6 7 7 5 3 1 6 7 5 4 3 4 3 4 4 5
5 5 6 7 7 7 7 6 5 4 3 3 3 3 3 3 4 4 5 5 5 5 5 6 6 6 6 6 6 12 8 5 4 5 5 4 4 5
5 6 6 7 7 7 7 6 5 4 3 2 3 3 3 3 3 3 4 5 4 5 6 6 6 6 6 5 5 7 13 8 5 4 4 3 4 5
6 6 6 7 7 7 7 6 5 5 4 2 2 2 2 2 2 2 3 4 4 4 5 5 5 7 4 3 4 6 7 12 12 6 3 3 3 3
6 6 7 7 7 7 7 6 6 5 6 5 3 2 2 2 2 2 2 2 2 2 3 2 3 5 5 7 7 7 7 7 10 17 17 11 3 3
6 6 7 7 7 7 7 8 8 7 7 7 5 3 2 2 2 2 2 2 2 2 2 2 2 4 5 5 6 6 8 8 7 9 10 14 15 13
Wind_Direction
344 345 333 317 303 308 309 302 295 298 297 305 316 336 347 346 348 325 315 309 304 292 278 269 270 273 274 275 276 276 276 276 276 276 275 275 274 275
328 323 317 316 338 321 314 314 308 302 301 308 314 333 350 332 319 321 307 301 293 285 278 271 265 265 269 271 272 272 272 272 272 272 271 271 270 270
344 350 351 340 329 333 324 314 314 321 314 313 316 320 324 314 305 297 293 285 281 282 282 278 270 264 263 265 267 268 268 269 270 271 271 270 270 269
354 348 342 334 338 324 319 319 317 313 306 307 310 308 304 300 291 287 292 291 292 292 285 279 274 268 263 261 261 261 261 262 263 266 268 268 268 268
345 336 328 320 312 317 321 312 307 309 311 304 301 297 294 293 294 293 293 293 296 295 292 288 284 280 273 266 261 257 254 252 252 255 258 262 263 264
328 317 311 308 308 319 313 306 315 320 309 300 297 298 297 294 296 301 302 297 297 298 296 293 289 286 280 274 267 261 255 250 248 247 248 250 254 256
318 315 311 310 301 289 295 310 312 303 302 299 299 301 300 304 304 302 300 299 290 286 292 295 294 288 283 279 275 269 260 252 246 244 243 242 241 242
317 322 315 309 335 319 298 294 286 286 292 293 294 294 296 300 303 304 303 301 297 291 299 298 295 291 287 280 278 275 265 256 249 244 241 238 235 235
316 318 318 326 348 348 328 313 299 291 283 283 286 289 296 302 305 305 302 301 298 298 297 295 296 294 294 299 301 288 273 262 255 248 242 237 234 233
325 315 314 329 25 355 325 312 304 303 302 299 289 292 298 300 298 296 296 295 291 289 287 289 294 298 303 297 292 288 284 273 261 253 244 239 236 233
324 322 330 343 17 340 321 313 312 310 311 315 309 298 293 291 288 292 295 297 301 302 299 285 294 306 299 293 300 306 298 286 272 260 249 241 237 232
322 327 355 350 332 324 320 313 309 312 318 316 312 308 303 296 293 276 284 296 302 299 311 306 292 307 299 291 305 305 298 285 275 263 251 241 231 224
324 327 330 333 324 317 311 297 293 304 307 304 305 307 313 316 318 306 288 288 297 293 295 299 281 275 271 290 296 298 300 297 284 263 244 233 219 211
318 325 328 324 318 312 307 297 299 303 300 304 309 316 323 329 324 319 313 303 289 286 288 288 278 283 288 288 288 298 306 299 292 278 242 207 214 219
324 326 319 313 313 310 309 310 307 302 307 315 320 322 323 324 322 321 321 320 313 308 305 295 289 289 291 295 301 300 307 308 314 310 278 173 181 187
337 323 315 311 314 311 314 318 314 312 317 317 320 326 332 336 337 336 335 336 336 333 329 328 324 319 324 321 314 315 316 313 325 337 13 89 108 168
322 313 322 334 341 341 339 336 334 336 339 341 339 343 346 347 348 347 348 349 352 350 350 347 341 344 50 7 339 336 335 338 348 6 48 67 54 43
320 325 334 339 339 337 335 333 335 341 349 353 348 352 354 354 356 358 4 3 359 357 356 353 352 351 345 65 17 350 349 0 14 26 42 63 57 42
324 334 338 337 332 329 328 330 334 338 346 354 354 355 359 358 4 5 4 3 1 2 1 359 3 5 13 11 5 11 6 8 24 42 45 51 56 48
344 341 337 331 328 327 328 331 334 343 4 5 359 358 1 2 10 4 5 5 3 9 13 13 13 11 13 1 354 7 18 21 23 39 46 55 71 87
344 340 334 329 328 329 332 337 345 357 8 8 2 3 1 4 6 3 8 7 11 20 23 19 10 7 5 9 29 28 28 36 45 40 17 36 41 40
340 337 330 326 329 335 339 345 355 5 5 6 4 0 358 359 1 4 7 8 23 39 39 29 23 28 34 41 42 35 32 35 47 51 47 47 52 52
334 331 328 332 339 343 347 353 2 5 3 356 352 348 347 345 343 356 7 23 33 49 63 57 55 51 47 45 46 45 41 39 42 49 49 46 62 71